Time,TemperatureF,DewpointF,PressureIn,WindDirection,WindDirectionDegrees,WindSpeedMPH,WindSpeedGustMPH,Humidity,HourlyPrecipIn,Conditions,Clouds,dailyrainin,SoftwareType,DateUTC
2013-02-20 00:03:00,32.2,32.0,29.61,NW,325,0.0,2.0,97,0.00,,,0.00,weatherlink.com 1.10,2013-02-20 05:03:00,
2013-02-20 00:18:00,32.3,32.0,29.61,NW,311,0.0,2.0,97,0.00,,,0.00,weatherlink.com 1.10,2013-02-20 05:18:00,
2013-02-20 00:33:00,32.3,32.0,29.60,North,350,1.0,2.0,97,0.00,,,0.00,weatherlink.com 1.10,2013-02-20 05:33:00,
2013-02-20 00:48:00,32.4,32.0,29.60,NNW,344,1.0,2.0,97,0.00,,,0.00,weatherlink.com 1.10,2013-02-20 05:48:00,
2013-02-20 01:03:00,31.9,31.0,29.61,NW,308,2.0,5.0,95,0.00,,,0.00,weatherlink.com 1.10,2013-02-20 06:03:00,
2013-02-20 01:18:00,31.3,30.0,29.61,NW,325,2.0,5.0,93,0.00,,,0.00,weatherlink.com 1.10,2013-02-20 06:18:00,
2013-02-20 01:33:00,30.9,29.0,29.61,NNW,327,0.0,3.0,93,0.00,,,0.00,weatherlink.com 1.10,2013-02-20 06:33:00,
2013-02-20 01:48:00,30.6,29.0,29.62,NNW,329,0.0,2.0,94,0.00,,,0.00,weatherlink.com 1.10,2013-02-20 06:48:00,
2013-02-20 02:03:00,30.2,29.0,29.62,NW,308,0.0,2.0,94,0.00,,,0.00,weatherlink.com 1.10,2013-02-20 07:03:00,
2013-02-20 02:18:00,30.0,29.0,29.62,NNW,332,0.0,1.0,95,0.00,,,0.00,weatherlink.com 1.10,2013-02-20 07:18:00,
2013-02-20 02:33:00,29.7,29.0,29.62,NNW,332,0.0,0.0,95,0.00,,,0.00,weatherlink.com 1.10,2013-02-20 07:33:00,
2013-02-20 02:48:00,29.7,29.0,29.62,NNE,19,0.0,1.0,95,0.00,,,0.00,weatherlink.com 1.10,2013-02-20 07:48:00,
2013-02-20 03:18:00,29.4,28.0,29.62,NE,42,0.0,0.0,96,0.00,,,0.00,weatherlink.com 1.10,2013-02-20 08:18:00,
2013-02-20 03:33:00,29.4,28.0,29.62,North,356,0.0,0.0,96,0.00,,,0.00,weatherlink.com 1.10,2013-02-20 08:33:00,
2013-02-20 03:48:00,29.3,28.0,29.62,NNE,17,0.0,1.0,95,0.00,,,0.00,weatherlink.com 1.10,2013-02-20 08:48:00,
2013-02-20 04:03:00,29.3,28.0,29.63,NNE,13,0.0,0.0,96,0.00,,,0.00,weatherlink.com 1.10,2013-02-20 09:03:00,
2013-02-20 04:18:00,29.2,28.0,29.63,NNW,342,0.0,0.0,96,0.00,,,0.00,weatherlink.com 1.10,2013-02-20 09:18:00,
2013-02-20 04:33:00,29.0,28.0,29.62,NNW,342,0.0,0.0,95,0.00,,,0.00,weatherlink.com 1.10,2013-02-20 09:33:00,
2013-02-20 04:48:00,28.9,28.0,29.62,NNW,342,0.0,0.0,95,0.00,,,0.00,weatherlink.com 1.10,2013-02-20 09:48:00,
2013-02-20 05:03:00,28.7,27.0,29.62,NNW,342,0.0,0.0,92,0.00,,,0.00,weatherlink.com 1.10,2013-02-20 10:03:00,
2013-02-20 05:18:00,28.3,26.0,29.62,NNW,342,0.0,0.0,92,0.00,,,0.00,weatherlink.com 1.10,2013-02-20 10:18:00,
2013-02-20 05:33:00,28.0,26.0,29.62,West,281,0.0,0.0,93,0.00,,,0.00,weatherlink.com 1.10,2013-02-20 10:33:00,
2013-02-20 05:49:00,27.7,26.0,29.62,WNW,282,0.0,0.0,94,0.00,,,0.00,weatherlink.com 1.10,2013-02-20 10:49:00,
2013-02-20 06:04:00,27.3,26.0,29.62,SW,233,0.0,0.0,94,0.00,,,0.00,weatherlink.com 1.10,2013-02-20 11:04:00,
2013-02-20 06:19:00,26.8,25.0,29.62,SW,233,0.0,0.0,94,0.00,,,0.00,weatherlink.com 1.10,2013-02-20 11:19:00,
2013-02-20 06:34:00,25.9,25.0,29.62,SW,233,0.0,0.0,95,0.00,,,0.00,weatherlink.com 1.10,2013-02-20 11:34:00,
2013-02-20 06:49:00,25.1,24.0,29.63,West,265,0.0,0.0,95,0.00,,,0.00,weatherlink.com 1.10,2013-02-20 11:49:00,
2013-02-20 07:04:00,25.0,24.0,29.64,NNW,338,0.0,1.0,95,0.00,,,0.00,weatherlink.com 1.10,2013-02-20 12:04:00,
2013-02-20 07:19:00,25.4,25.0,29.64,NW,313,0.0,0.0,96,0.00,,,0.00,weatherlink.com 1.10,2013-02-20 12:19:00,
2013-02-20 07:34:00,24.6,23.0,29.64,North,350,0.0,0.0,95,0.00,,,0.00,weatherlink.com 1.10,2013-02-20 12:34:00,
2013-02-20 07:49:00,24.9,24.0,29.63,North,350,0.0,0.0,96,0.00,,,0.00,weatherlink.com 1.10,2013-02-20 12:49:00,
2013-02-20 08:04:00,25.4,25.0,29.64,NNW,344,0.0,0.0,96,0.00,,,0.00,weatherlink.com 1.10,2013-02-20 13:04:00,
2013-02-20 08:19:00,26.2,25.0,29.63,NNW,344,0.0,0.0,96,0.00,,,0.00,weatherlink.com 1.10,2013-02-20 13:19:00,
2013-02-20 08:34:00,27.0,26.0,29.64,NNW,344,0.0,0.0,95,0.00,,,0.00,weatherlink.com 1.10,2013-02-20 13:34:00,
2013-02-20 08:49:00,27.8,26.0,29.63,WNW,288,0.0,0.0,93,0.00,,,0.00,weatherlink.com 1.10,2013-02-20 13:49:00,
2013-02-20 09:04:00,29.2,26.0,29.63,WNW,285,0.0,0.0,88,0.00,,,0.00,weatherlink.com 1.10,2013-02-20 14:04:00,
2013-02-20 09:19:00,29.5,25.0,29.63,NW,317,0.0,1.0,82,0.00,,,0.00,weatherlink.com 1.10,2013-02-20 14:19:00,
2013-02-20 09:34:00,30.4,23.0,29.63,NNW,332,0.0,1.0,75,0.00,,,0.00,weatherlink.com 1.10,2013-02-20 14:34:00,
2013-02-20 09:49:00,30.2,25.0,29.63,SW,226,0.0,1.0,82,0.00,,,0.00,weatherlink.com 1.10,2013-02-20 14:49:00,
2013-02-20 10:04:00,30.9,25.0,29.63,SW,223,1.0,3.0,77,0.00,,,0.00,weatherlink.com 1.10,2013-02-20 15:04:00,
2013-02-20 10:19:00,30.9,23.0,29.63,West,276,0.0,1.0,72,0.00,,,0.00,weatherlink.com 1.10,2013-02-20 15:19:00,
2013-02-20 10:34:00,30.5,21.0,29.64,West,269,1.0,4.0,68,0.00,,,0.00,weatherlink.com 1.10,2013-02-20 15:34:00,
2013-02-20 10:49:00,30.6,20.0,29.63,NW,324,0.0,6.0,66,0.00,,,0.00,weatherlink.com 1.10,2013-02-20 15:49:00,
2013-02-20 11:04:00,30.5,19.0,29.63,WNW,283,0.0,6.0,63,0.00,,,0.00,weatherlink.com 1.10,2013-02-20 16:04:00,
2013-02-20 11:19:00,30.8,20.0,29.63,NW,320,0.0,5.0,64,0.00,,,0.00,weatherlink.com 1.10,2013-02-20 16:19:00,
2013-02-20 11:34:00,31.2,18.0,29.63,WNW,289,1.0,10.0,59,0.00,,,0.00,weatherlink.com 1.10,2013-02-20 16:34:00,
2013-02-20 11:49:00,31.0,19.0,29.63,NW,307,1.0,8.0,61,0.00,,,0.00,weatherlink.com 1.10,2013-02-20 16:49:00,
2013-02-20 12:04:00,30.9,19.0,29.63,NW,323,2.0,4.0,61,0.00,,,0.00,weatherlink.com 1.10,2013-02-20 17:04:00,
2013-02-20 12:19:00,30.6,17.0,29.63,WNW,297,2.0,7.0,58,0.00,,,0.00,weatherlink.com 1.10,2013-02-20 17:19:00,
2013-02-20 12:34:00,30.5,17.0,29.63,NW,308,3.0,7.0,58,0.00,,,0.00,weatherlink.com 1.10,2013-02-20 17:34:00,
2013-02-20 12:49:00,30.6,17.0,29.63,WNW,288,4.0,8.0,57,0.00,,,0.00,weatherlink.com 1.10,2013-02-20 17:49:00,
2013-02-20 13:04:00,30.2,16.0,29.63,NW,316,7.0,9.0,57,0.00,,,0.00,weatherlink.com 1.10,2013-02-20 18:04:00,
2013-02-20 13:19:00,30.1,16.0,29.63,WNW,301,3.0,7.0,56,0.00,,,0.00,weatherlink.com 1.10,2013-02-20 18:19:00,
2013-02-20 13:34:00,30.5,16.0,29.63,WNW,296,3.0,10.0,56,0.00,,,0.00,weatherlink.com 1.10,2013-02-20 18:34:00,
2013-02-20 13:49:00,30.2,16.0,29.64,WNW,297,6.0,7.0,56,0.00,,,0.00,weatherlink.com 1.10,2013-02-20 18:49:00,
2013-02-20 14:04:00,29.9,16.0,29.64,WNW,284,1.0,9.0,56,0.00,,,0.00,weatherlink.com 1.10,2013-02-20 19:04:00,
2013-02-20 14:19:00,30.3,16.0,29.64,WSW,243,1.0,9.0,56,0.00,,,0.00,weatherlink.com 1.10,2013-02-20 19:19:00,
2013-02-20 14:34:00,30.5,16.0,29.64,WNW,296,5.0,9.0,54,0.00,,,0.00,weatherlink.com 1.10,2013-02-20 19:34:00,
2013-02-20 14:49:00,30.7,16.0,29.64,WNW,284,2.0,4.0,55,0.00,,,0.00,weatherlink.com 1.10,2013-02-20 19:49:00,
2013-02-20 15:04:00,31.3,15.0,29.64,West,260,1.0,8.0,52,0.00,,,0.00,weatherlink.com 1.10,2013-02-20 20:04:00,
2013-02-20 15:19:00,31.4,15.0,29.64,WSW,252,2.0,9.0,50,0.00,,,0.00,weatherlink.com 1.10,2013-02-20 20:19:00,
2013-02-20 15:35:00,31.5,15.0,29.65,SW,219,1.0,7.0,51,0.00,,,0.00,weatherlink.com 1.10,2013-02-20 20:35:00,
2013-02-20 15:50:00,30.8,14.0,29.65,WNW,298,0.0,9.0,51,0.00,,,0.00,weatherlink.com 1.10,2013-02-20 20:50:00,
2013-02-20 16:05:00,29.5,16.0,29.65,NW,317,0.0,5.0,57,0.00,,,0.00,weatherlink.com 1.10,2013-02-20 21:05:00,
2013-02-20 16:20:00,28.3,19.0,29.66,SW,217,3.0,7.0,69,0.00,,,0.00,weatherlink.com 1.10,2013-02-20 21:20:00,
2013-02-20 16:35:00,27.7,20.0,29.67,NNW,327,0.0,3.0,73,0.00,,,0.00,weatherlink.com 1.10,2013-02-20 21:35:00,
2013-02-20 16:50:00,27.0,20.0,29.67,NW,325,0.0,1.0,76,0.00,,,0.00,weatherlink.com 1.10,2013-02-20 21:50:00,
2013-02-20 17:05:00,26.7,21.0,29.68,NNE,29,0.0,2.0,80,0.00,,,0.00,weatherlink.com 1.10,2013-02-20 22:05:00,
2013-02-20 17:20:00,26.5,21.0,29.69,South,190,3.0,9.0,80,0.00,,,0.00,weatherlink.com 1.10,2013-02-20 22:20:00,
2013-02-20 17:35:00,26.0,21.0,29.69,South,180,1.0,5.0,80,0.00,,,0.00,weatherlink.com 1.10,2013-02-20 22:35:00,
2013-02-20 17:50:00,26.0,20.0,29.70,South,178,2.0,3.0,78,0.00,,,0.00,weatherlink.com 1.10,2013-02-20 22:50:00,
2013-02-20 18:05:00,26.0,20.0,29.71,South,190,0.0,2.0,77,0.00,,,0.00,weatherlink.com 1.10,2013-02-20 23:05:00,
2013-02-20 18:20:00,26.2,18.0,29.71,West,271,0.0,5.0,71,0.00,,,0.00,weatherlink.com 1.10,2013-02-20 23:20:00,
2013-02-20 18:35:00,26.4,17.0,29.72,West,271,0.0,1.0,69,0.00,,,0.00,weatherlink.com 1.10,2013-02-20 23:35:00,
2013-02-20 18:50:00,26.6,17.0,29.72,South,187,0.0,2.0,68,0.00,,,0.00,weatherlink.com 1.10,2013-02-20 23:50:00,
2013-02-20 19:05:00,26.4,17.0,29.72,SSW,197,2.0,6.0,67,0.00,,,0.00,weatherlink.com 1.10,2013-02-21 00:05:00,
2013-02-20 19:20:00,26.1,16.0,29.73,SW,228,0.0,3.0,66,0.00,,,0.00,weatherlink.com 1.10,2013-02-21 00:20:00,
2013-02-20 19:35:00,25.9,17.0,29.73,WSW,257,0.0,3.0,68,0.00,,,0.00,weatherlink.com 1.10,2013-02-21 00:35:00,
2013-02-20 19:50:00,25.7,17.0,29.73,WSW,238,0.0,2.0,70,0.00,,,0.00,weatherlink.com 1.10,2013-02-21 00:50:00,
2013-02-20 20:05:00,25.5,17.0,29.73,WSW,241,0.0,5.0,69,0.00,,,0.00,weatherlink.com 1.10,2013-02-21 01:05:00,
2013-02-20 20:20:00,26.1,16.0,29.74,SSW,213,7.0,7.0,67,0.00,,,0.00,weatherlink.com 1.10,2013-02-21 01:20:00,
2013-02-20 20:35:00,27.2,17.0,29.74,WNW,290,1.0,6.0,65,0.00,,,0.00,weatherlink.com 1.10,2013-02-21 01:35:00,
2013-02-20 20:50:00,25.8,17.0,29.74,SSW,213,0.0,3.0,68,0.00,,,0.00,weatherlink.com 1.10,2013-02-21 01:50:00,
2013-02-20 21:05:00,25.4,17.0,29.74,SW,221,2.0,2.0,70,0.00,,,0.00,weatherlink.com 1.10,2013-02-21 02:05:00,
2013-02-20 21:20:00,25.4,17.0,29.75,West,281,0.0,2.0,71,0.00,,,0.00,weatherlink.com 1.10,2013-02-21 02:20:00,
2013-02-20 21:35:00,25.4,17.0,29.76,West,261,0.0,0.0,71,0.00,,,0.00,weatherlink.com 1.10,2013-02-21 02:35:00,
2013-02-20 21:50:00,25.6,17.0,29.75,WSW,254,0.0,2.0,70,0.00,,,0.00,weatherlink.com 1.10,2013-02-21 02:50:00,
2013-02-20 22:05:00,26.1,17.0,29.75,NW,315,3.0,9.0,68,0.00,,,0.00,weatherlink.com 1.10,2013-02-21 03:05:00,
2013-02-20 22:20:00,27.5,16.0,29.75,SW,225,4.0,13.0,63,0.00,,,0.00,weatherlink.com 1.10,2013-02-21 03:20:00,
2013-02-20 22:35:00,27.3,16.0,29.76,NW,320,2.0,8.0,63,0.00,,,0.00,weatherlink.com 1.10,2013-02-21 03:35:00,
2013-02-20 22:50:00,27.2,16.0,29.77,WNW,284,3.0,10.0,63,0.00,,,0.00,weatherlink.com 1.10,2013-02-21 03:50:00,
2013-02-20 23:05:00,26.8,14.0,29.77,NW,319,3.0,12.0,60,0.00,,,0.00,weatherlink.com 1.10,2013-02-21 04:05:00,
2013-02-20 23:20:00,26.3,14.0,29.78,WNW,285,2.0,10.0,61,0.00,,,0.00,weatherlink.com 1.10,2013-02-21 04:20:00,
2013-02-20 23:35:00,25.8,14.0,29.78,NW,304,4.0,10.0,60,0.00,,,0.00,weatherlink.com 1.10,2013-02-21 04:35:00,
2013-02-20 23:50:00,25.3,13.0,29.79,NW,312,1.0,12.0,60,0.00,,,0.00,weatherlink.com 1.10,2013-02-21 04:50:00,